Simultaneous Nadir Overpasses (SNOs) Predictions

Prediction of SNOs between AQUA and NOAA-19 Satellite Orbit:

Table of predicted SNOs for the next 14.0 days since TLE Epoch: 3/16/2012
Index Date (AQUA) Time (AQUA) AQUA Lat,Lon Date (NOAA-19) Time (NOAA-19) NOAA-19 Lat,Lon Distance(km) Time Diff (sec)
1 03/17/2012 20:37:13 46.05, 83.16 03/17/2012 20:36:05 46.04, 83.22 5.06 68
2 03/17/2012 21:23:56 -55.87,-104.85 03/17/2012 21:24:15 -55.87,-104.85 0.05 19
3 03/20/2012 01:21:28 46.92, 12.37 03/20/2012 01:20:37 46.93, 12.39 1.18 51
4 03/20/2012 02:07:51 -57.89,-174.82 03/20/2012 02:08:26 -57.90,-174.81 1.07 35
5 03/22/2012 06:05:30 48.89, -57.99 03/22/2012 06:04:50 48.90, -57.97 1.49 40
6 03/22/2012 06:52:06 -59.07, 114.76 03/22/2012 06:52:52 -59.08, 114.78 1.40 46
7 03/24/2012 10:50:14
